SCP
0 0 0 0 0 0 0 0 0 0 0 0 0 0 0 0 0 0 0 0 0 0 0 0 0 0 0 0 0 0 0 0 0 0 0 0 0 0 0 0 0 0 0
0 0 0 0 0 0 0 0 0 0 0 0 0 0 0 0 0 0 0 0 0 0 0 0 0 0 0 0 0 0 0 0 0 0 0 0 0 0 0 0 0 0 0
0 0 0 0 0 0 0 0 0 0 0 0 0 0 0 0 0 0 0 0 0 0 0 0 0 0 0 0 0 0 0 0 0 0 0 0 0 0 0 0 0 0 0
0 0 0 0 0 0 0 0 0 0 0 0 0 0 0 0 0 0 0 0 0 0 0 0 0 0 0 0 0 0 0 0 0 0 0 0 0 0 0 0 0 0 0
0 0 0 0 0 0 0 0 0 0 0 0 0 0 0 0 0 0 0 0 0 0 0 0 0 0 0 0 0 0 0 0 0 0 0 0 0 0 0 0 0 0 0
-0 -0 -0 -0 -0 0 0 0 0 0 0 0 0 0 0 0 0 0 0 0 0 0 0 0 0 0 0 0 0 0 0 0 0 0 0 0 0 0 0 0 0 0 0
-0 -0 -0 -0 0 0 0 0 0 0 0 0 0 0 0 0 0 0 0 0 0 0 0 0 0 0 0 0 0 0 0 0 0 0 0 0 0 0 0 0 0 0 0
0 -0 0 0 0 0 0 0 0 0 0 0 0 0 0 0 0 0 0 0 0 0 0 0 0 0 0 0 0 0 0 0 0 0 0 0 0 0 0 0 0 0 0
0 0 0 0 0 -0 -0 0 0 0 0 0 0 0 0 0 0 0 0 0 0 0 0 0 0 0 0 0 0 0 0 0 0 0 0 0 0 0 0 0 0 0 0
0 0 0 0 0 0 0 -0 -0 -0 0 0 0 0 0 0 0 0 0 0 0 0 0 0 0 0 0 0 0 0 0 0 0 0 0 0 0 0 0 0 0 0 0
0 0 0 0 0 0 0 0 0 0 -0 0 0 0 0 0 0 0 0 0 0 0 0 0 0 0 0 0 0 0 0 0 0 0 0 0 0 0 0 0 0 0 0
0 0 0 0 0 0 0 0 0 0 0 0 0 0 0 0 0 0 0 0 0 0 0 0 0 0 0 0 0 0 0 0 0 0 0 0 0 0 0 0 0 0 0
0 0 0 0 0 0 0 0 0 0 0 0 0 0 0 0 0 0 0 0 0 0 0 0 0 0 0 0 0 0 0 0 0 0 0 0 0 0 0 0 0 0 0
0 0 0 0 0 0 0 0 0 0 0 0 0 0 0 0 0 0 0 0 0 0 0 0 0 0 0 0 0 0 0 0 0 0 0 0 0 0 0 0 0 0 0
0 0 0 0 0 0 0 0 0 0 0 0 0 0 0 0 0 0 0 0 0 0 0 0 0 0 0 0 0 0 0 0 0 0 0 0 0 0 0 0 0 0 0
0 0 0 0 0 0 0 0 0 0 0 0 0 0 0 0 0 0 0 0 0 0 0 0 0 0 0 0 0 0 0 0 0 0 0 0 0 0 0 0 0 0 0
0 0 0 0 0 0 0 0 0 0 0 0 0 0 0 0 0 0 0 0 0 0 0 0 0 0 0 0 -0 -0 -0 0 0 0 0 0 0 0 0 0 0 0 0
0 0 0 0 0 0 0 0 0 0 0 0 0 0 0 0 0 0 0 0 0 0 0 0 0 0 0 0 0 0 0 0 0 0 0 0 0 0 0 0 0 0 0
0 0 0 0 0 0 0 0 0 0 0 0 0 0 0 0 0 0 0 0 0 0 0 0 0 0 0 0 0 0 0 0 0 0 0 0 0 0 0 0 0 0 0
0 0 0 0 0 0 0 0 0 0 0 0 0 0 0 0 0 0 0 0 0 0 0 0 0 0 0 0 0 0 0 0 0 0 0 0 0 0 0 0 0 0 0
0 0 0 0 0 0 0 0 0 0 0 0 0 0 0 0 0 0 0 0 0 0 0 0 0 0 0 0 0 0 0 0 0 0 0 0 0 0 0 0 0 0 0
0 0 0 0 0 0 0 0 0 0 0 0 0 0 0 0 0 0 0 0 0 0 0 0 0 0 0 0 0 0 0 0 0 0 0 0 0 0 0 0 0 0 0
0 0 0 0 0 0 0 0 0 0 0 0 0 0 0 0 0 0 0 0 0 0 0 0 0 0 0 0 0 0 0 0 0 0 0 0 0 0 0 0 0 0 0
0 0 0 0 0 0 0 0 0 0 0 0 0 0 0 0 0 0 0 0 0 0 0 0 0 0 0 0 0 0 0 0 0 0 0 0 0 0 0 0 0 0 0
0 0 0 0 0 0 0 0 0 0 0 0 0 0 0 0 0 0 0 0 0 0 0 0 0 0 0 0 0 0 0 0 0 0 0 0 0 0 0 0 0 0 0
0 0 0 0 0 0 0 0 0 0 0 0 0 0 0 0 0 0 0 0 0 0 0 0 0 0 0 0 0 0 0 0 0 0 0 0 0 0 0 0 0 0 0
Wind_Speed_500mb
26 26 23 26 36 39 43 46 48 49 52 56 58 60 64 68 70 76 82 86 93 94 92 97 101 98 104 119 110 113 112 107 114 105 99 95 85 77 71 85 90 72 82
24 27 30 36 42 45 46 50 54 58 58 62 65 70 72 72 72 75 78 79 83 85 89 92 96 95 98 105 110 108 111 107 101 102 102 99 84 69 63 59 78 82 82
34 38 40 43 48 51 54 55 58 66 71 71 72 75 77 77 78 77 76 78 80 81 79 85 87 80 91 96 99 103 104 107 101 97 100 91 80 65 64 67 69 68 69
45 46 48 50 54 57 60 64 70 72 74 74 73 74 76 77 77 75 75 77 80 79 80 80 80 76 87 86 93 94 98 97 94 89 85 84 75 62 62 65 63 60 70
64 65 65 63 61 63 67 70 73 75 76 77 78 78 78 78 79 76 75 76 78 79 78 77 73 76 79 77 86 89 86 87 85 80 80 84 76 66 68 61 49 56 69
62 65 65 65 64 64 65 67 68 70 70 71 72 72 74 74 73 70 71 75 77 78 78 73 68 72 71 75 79 80 77 73 75 76 77 80 76 65 58 55 56 64 59
62 62 64 67 65 63 64 64 63 63 64 67 71 72 72 67 61 62 65 71 74 75 73 70 69 70 70 71 72 69 70 62 58 58 68 77 66 57 53 54 65 63 64
63 66 66 69 71 67 65 66 66 66 66 66 66 63 66 63 56 56 60 67 71 71 68 66 70 68 66 67 63 61 59 54 55 57 55 54 50 53 53 51 53 55 52
57 61 68 73 75 75 72 69 69 71 68 67 67 66 63 60 53 56 54 62 67 66 62 63 62 61 56 56 53 51 51 47 44 39 37 44 45 37 42 45 46 47 47
65 67 66 65 68 74 75 75 75 73 71 66 64 61 60 57 52 53 52 56 59 61 59 56 54 53 49 41 38 39 44 45 47 46 48 40 32 35 31 32 29 31 34
66 66 67 69 72 72 73 77 75 76 71 64 60 54 50 50 45 45 44 52 47 49 48 46 42 39 32 30 32 30 36 41 45 42 33 33 32 26 17 14 18 26 33
67 70 71 71 73 74 76 74 67 64 60 57 56 51 43 40 38 37 39 44 41 39 36 36 32 23 20 23 23 21 32 41 44 31 32 28 23 12 6 11 18 26 31
66 67 70 70 67 68 68 67 66 59 54 49 47 46 38 36 35 31 31 31 23 23 24 18 12 12 16 18 19 25 38 33 33 33 25 19 6 6 10 18 23 29 32
68 66 66 67 66 61 57 57 56 52 50 46 43 40 36 30 26 22 16 14 15 18 14 6 9 16 20 26 21 20 21 29 22 12 10 10 14 18 20 22 25 28 32
69 65 64 62 57 57 55 51 47 45 41 38 34 32 33 28 20 11 5 4 8 6 1 15 22 24 25 24 21 12 27 12 6 9 19 24 26 28 27 27 29 32 36
66 66 61 55 52 52 49 38 33 25 17 14 13 13 12 14 4 4 9 6 6 14 13 15 22 27 20 20 20 26 20 16 23 24 26 29 32 30 28 29 30 32 35
63 63 58 49 47 43 36 27 21 14 12 8 4 8 10 10 13 11 11 11 14 19 13 12 10 11 13 17 23 25 25 26 28 30 32 31 29 29 28 29 29 32 36
60 56 51 42 36 33 26 19 17 13 8 2 7 10 12 14 17 16 11 11 12 11 12 10 7 5 4 8 11 16 21 27 29 27 26 26 27 28 31 32 33 36 40
53 46 38 32 30 25 23 22 18 13 11 11 9 9 11 11 11 10 10 7 6 5 3 2 4 6 10 12 15 19 20 21 22 22 23 26 29 31 32 35 37 40 42
46 38 33 28 27 27 26 26 24 21 16 8 7 8 7 6 8 8 7 6 7 7 5 5 6 9 12 12 14 15 18 21 24 26 29 32 35 38 38 39 40 41 39
38 33 31 30 29 30 30 27 24 19 14 10 9 11 11 7 7 8 8 7 6 6 7 8 10 13 15 18 21 24 27 30 32 34 37 40 42 43 43 42 40 39 37
32 32 34 34 32 32 31 26 24 21 16 13 10 9 8 9 8 8 8 8 8 8 11 14 17 20 23 26 28 31 33 34 36 37 38 41 42 42 41 39 37 36 36
28 28 31 34 33 33 31 27 26 22 18 14 12 11 10 9 8 9 9 10 12 15 18 21 24 27 31 33 34 35 37 37 39 39 39 41 41 41 40 39 38 37 35
24 25 27 28 29 29 28 26 24 21 18 14 13 12 12 11 12 13 15 18 20 24 26 29 32 34 36 37 38 38 38 37 37 37 37 38 38 39 39 38 36 34 33
18 20 21 22 23 23 23 22 21 18 14 13 14 13 14 16 18 20 24 28 30 32 34 36 36 37 37 38 38 37 36 35 35 36 36 36 35 36 35 34 33 33 33
14 17 18 19 19 20 19 16 13 14 17 16 17 19 21 25 29 32 34 36 37 37 37 36 34 33 33 33 34 34 35 34 35 36 35 36 36 36 36 34 34 35 34
Wind_Direction_500mb
330 319 310 323 327 323 314 308 302 294 289 282 277 271 267 264 261 261 261 262 264 268 269 268 267 269 270 272 269 270 272 268 262 261 264 267 261 254 250 239 231 226 230
307 302 300 306 307 304 302 303 302 301 294 287 282 278 274 271 269 267 267 266 266 269 269 269 269 268 270 270 271 274 272 275 268 262 264 263 257 251 242 233 231 227 226
307 302 300 297 294 291 289 287 290 293 292 289 283 278 278 278 277 275 273 271 271 272 271 271 272 270 267 269 270 275 276 274 270 265 263 257 252 237 231 233 231 236 226
326 321 314 303 295 291 289 289 290 290 288 286 283 280 278 278 276 275 273 271 272 273 274 273 272 270 270 269 272 275 275 272 269 264 258 254 246 233 231 226 220 215 221
323 321 319 315 306 298 293 290 289 289 288 289 288 284 281 278 276 275 274 272 272 274 275 274 271 271 270 270 273 275 274 271 268 263 254 243 234 227 217 217 214 215 219
321 320 320 317 317 314 308 302 297 294 291 287 285 286 284 280 279 275 271 270 270 270 271 271 267 268 268 269 275 272 271 269 267 261 249 238 236 229 218 204 212 211 209
317 319 321 320 317 316 315 312 309 305 299 294 290 287 283 281 279 274 270 268 269 270 270 267 266 266 268 271 273 271 270 267 264 262 257 241 230 221 210 204 210 221 218
315 315 319 319 317 316 315 313 312 310 307 301 296 291 285 281 274 271 272 272 273 274 274 270 268 268 267 271 271 268 264 259 250 248 246 243 222 211 207 214 213 215 225
319 316 311 313 316 317 314 312 311 310 309 306 301 296 287 283 277 272 272 276 278 277 274 272 270 271 271 271 267 260 256 246 235 221 210 199 199 211 216 213 217 219 228
321 318 316 314 312 311 311 311 311 309 308 305 301 296 290 286 280 275 273 273 277 280 277 274 272 272 272 267 258 251 241 234 213 200 201 199 214 214 215 217 220 226 239
323 320 315 313 312 310 308 308 305 304 303 304 302 300 295 291 288 282 276 275 276 276 279 282 279 278 272 250 247 245 238 217 202 197 192 191 188 183 191 212 240 250 245
315 314 312 309 309 307 306 305 303 303 303 304 304 303 301 294 289 282 277 275 274 271 276 279 280 272 250 234 235 216 209 205 189 181 174 175 186 183 224 251 254 255 252
309 311 309 308 308 308 306 304 304 302 302 301 304 304 304 295 289 281 279 275 266 277 289 285 259 228 208 211 211 202 195 189 181 169 172 178 199 283 277 256 256 251 248
305 308 311 309 306 305 304 303 304 304 302 301 303 301 296 289 287 282 262 253 261 290 295 215 161 157 177 188 191 195 186 168 173 197 217 258 285 295 290 276 261 253 252
300 303 306 306 305 305 304 305 301 302 302 303 300 295 296 292 276 269 235 207 271 301 131 138 134 147 171 190 186 184 176 176 205 267 282 288 290 288 282 270 259 257 254
302 303 306 307 305 302 300 301 298 302 297 298 307 310 312 311 281 133 154 130 104 95 96 107 142 156 168 179 183 182 200 259 287 290 287 286 286 284 277 266 265 263 261
302 304 304 302 300 300 296 286 281 290 298 306 47 32 35 43 107 114 119 98 100 87 89 98 99 131 174 212 234 247 257 265 272 278 282 282 279 276 270 268 269 266 260
297 298 298 297 294 288 278 266 256 250 248 147 88 55 84 105 120 129 139 133 124 96 85 81 88 114 175 226 242 255 264 269 271 272 271 269 267 268 270 270 268 267 268
294 292 286 282 280 265 253 248 239 224 197 167 134 116 104 115 148 150 155 156 140 162 167 185 205 235 252 259 268 269 269 269 270 269 269 269 270 271 273 273 272 271 271
289 283 273 267 262 249 238 238 229 210 197 182 171 169 157 152 164 165 171 183 200 216 232 245 258 271 277 280 276 276 278 281 281 284 285 284 281 279 277 275 272 271 272
283 270 258 250 246 240 233 228 222 213 202 184 160 140 134 138 160 170 178 194 217 237 251 264 273 279 283 287 289 287 283 281 280 280 279 278 278 276 275 275 276 276 274
274 264 252 242 235 231 227 223 220 218 207 190 178 177 177 173 170 175 186 202 221 245 263 274 279 283 285 285 283 281 281 282 283 284 283 282 281 281 281 280 278 276 276
267 258 246 233 228 223 218 215 214 211 211 197 178 176 180 189 207 228 243 256 266 274 281 285 289 289 288 288 287 288 288 289 288 287 284 283 284 283 283 283 281 279 279
256 246 235 226 219 213 211 209 207 207 206 200 191 199 212 225 243 261 274 284 290 291 290 290 289 289 291 293 293 294 294 293 292 290 289 287 287 286 283 282 280 278 274
246 235 226 217 208 205 201 197 194 198 206 218 226 236 251 264 272 281 286 287 288 289 290 292 293 294 294 294 295 296 296 295 293 291 290 289 288 287 286 285 282 277 272
224 212 204 197 191 189 190 191 199 217 229 243 258 269 276 281 284 285 287 289 291 293 296 296 298 298 298 298 297 297 297 294 291 289 288 288 286 285 283 280 276 275 272
Wind_Speed_850mb
26 26 23 26 36 39 43 46 48 49 52 56 58 60 64 68 70 76 82 86 93 94 92 97 101 98 104 119 110 113 112 107 114 105 99 95 85 77 71 85 90 72 82
24 27 30 36 42 45 46 50 54 58 58 62 65 70 72 72 72 75 78 79 83 85 89 92 96 95 98 105 110 108 111 107 101 102 102 99 84 69 63 59 78 82 82
34 38 40 43 48 51 54 55 58 66 71 71 72 75 77 77 78 77 76 78 80 81 79 85 87 80 91 96 99 103 104 107 101 97 100 91 80 65 64 67 69 68 69
45 46 48 50 54 57 60 64 70 72 74 74 73 74 76 77 77 75 75 77 80 79 80 80 80 76 87 86 93 94 98 97 94 89 85 84 75 62 62 65 63 60 70
64 65 65 63 61 63 67 70 73 75 76 77 78 78 78 78 79 76 75 76 78 79 78 77 73 76 79 77 86 89 86 87 85 80 80 84 76 66 68 61 49 56 69
62 65 65 65 64 64 65 67 68 70 70 71 72 72 74 74 73 70 71 75 77 78 78 73 68 72 71 75 79 80 77 73 75 76 77 80 76 65 58 55 56 64 59
62 62 64 67 65 63 64 64 63 63 64 67 71 72 72 67 61 62 65 71 74 75 73 70 69 70 70 71 72 69 70 62 58 58 68 77 66 57 53 54 65 63 64
63 66 66 69 71 67 65 66 66 66 66 66 66 63 66 63 56 56 60 67 71 71 68 66 70 68 66 67 63 61 59 54 55 57 55 54 50 53 53 51 53 55 52
57 61 68 73 75 75 72 69 69 71 68 67 67 66 63 60 53 56 54 62 67 66 62 63 62 61 56 56 53 51 51 47 44 39 37 44 45 37 42 45 46 47 47
65 67 66 65 68 74 75 75 75 73 71 66 64 61 60 57 52 53 52 56 59 61 59 56 54 53 49 41 38 39 44 45 47 46 48 40 32 35 31 32 29 31 34
66 66 67 69 72 72 73 77 75 76 71 64 60 54 50 50 45 45 44 52 47 49 48 46 42 39 32 30 32 30 36 41 45 42 33 33 32 26 17 14 18 26 33
67 70 71 71 73 74 76 74 67 64 60 57 56 51 43 40 38 37 39 44 41 39 36 36 32 23 20 23 23 21 32 41 44 31 32 28 23 12 6 11 18 26 31
66 67 70 70 67 68 68 67 66 59 54 49 47 46 38 36 35 31 31 31 23 23 24 18 12 12 16 18 19 25 38 33 33 33 25 19 6 6 10 18 23 29 32
68 66 66 67 66 61 57 57 56 52 50 46 43 40 36 30 26 22 16 14 15 18 14 6 9 16 20 26 21 20 21 29 22 12 10 10 14 18 20 22 25 28 32
69 65 64 62 57 57 55 51 47 45 41 38 34 32 33 28 20 11 5 4 8 6 1 15 22 24 25 24 21 12 27 12 6 9 19 24 26 28 27 27 29 32 36
66 66 61 55 52 52 49 38 33 25 17 14 13 13 12 14 4 4 9 6 6 14 13 15 22 27 20 20 20 26 20 16 23 24 26 29 32 30 28 29 30 32 35
63 63 58 49 47 43 36 27 21 14 12 8 4 8 10 10 13 11 11 11 14 19 13 12 10 11 13 17 23 25 25 26 28 30 32 31 29 29 28 29 29 32 36
60 56 51 42 36 33 26 19 17 13 8 2 7 10 12 14 17 16 11 11 12 11 12 10 7 5 4 8 11 16 21 27 29 27 26 26 27 28 31 32 33 36 40
53 46 38 32 30 25 23 22 18 13 11 11 9 9 11 11 11 10 10 7 6 5 3 2 4 6 10 12 15 19 20 21 22 22 23 26 29 31 32 35 37 40 42
46 38 33 28 27 27 26 26 24 21 16 8 7 8 7 6 8 8 7 6 7 7 5 5 6 9 12 12 14 15 18 21 24 26 29 32 35 38 38 39 40 41 39
38 33 31 30 29 30 30 27 24 19 14 10 9 11 11 7 7 8 8 7 6 6 7 8 10 13 15 18 21 24 27 30 32 34 37 40 42 43 43 42 40 39 37
32 32 34 34 32 32 31 26 24 21 16 13 10 9 8 9 8 8 8 8 8 8 11 14 17 20 23 26 28 31 33 34 36 37 38 41 42 42 41 39 37 36 36
28 28 31 34 33 33 31 27 26 22 18 14 12 11 10 9 8 9 9 10 12 15 18 21 24 27 31 33 34 35 37 37 39 39 39 41 41 41 40 39 38 37 35
24 25 27 28 29 29 28 26 24 21 18 14 13 12 12 11 12 13 15 18 20 24 26 29 32 34 36 37 38 38 38 37 37 37 37 38 38 39 39 38 36 34 33
18 20 21 22 23 23 23 22 21 18 14 13 14 13 14 16 18 20 24 28 30 32 34 36 36 37 37 38 38 37 36 35 35 36 36 36 35 36 35 34 33 33 33
14 17 18 19 19 20 19 16 13 14 17 16 17 19 21 25 29 32 34 36 37 37 37 36 34 33 33 33 34 34 35 34 35 36 35 36 36 36 36 34 34 35 34
Wind_Direction_850mb
330 319 310 323 327 323 314 308 302 294 289 282 277 271 267 264 261 261 261 262 264 268 269 268 267 269 270 272 269 270 272 268 262 261 264 267 261 254 250 239 231 226 230
307 302 300 306 307 304 302 303 302 301 294 287 282 278 274 271 269 267 267 266 266 269 269 269 269 268 270 270 271 274 272 275 268 262 264 263 257 251 242 233 231 227 226
307 302 300 297 294 291 289 287 290 293 292 289 283 278 278 278 277 275 273 271 271 272 271 271 272 270 267 269 270 275 276 274 270 265 263 257 252 237 231 233 231 236 226
326 321 314 303 295 291 289 289 290 290 288 286 283 280 278 278 276 275 273 271 272 273 274 273 272 270 270 269 272 275 275 272 269 264 258 254 246 233 231 226 220 215 221
323 321 319 315 306 298 293 290 289 289 288 289 288 284 281 278 276 275 274 272 272 274 275 274 271 271 270 270 273 275 274 271 268 263 254 243 234 227 217 217 214 215 219
321 320 320 317 317 314 308 302 297 294 291 287 285 286 284 280 279 275 271 270 270 270 271 271 267 268 268 269 275 272 271 269 267 261 249 238 236 229 218 204 212 211 209
317 319 321 320 317 316 315 312 309 305 299 294 290 287 283 281 279 274 270 268 269 270 270 267 266 266 268 271 273 271 270 267 264 262 257 241 230 221 210 204 210 221 218
315 315 319 319 317 316 315 313 312 310 307 301 296 291 285 281 274 271 272 272 273 274 274 270 268 268 267 271 271 268 264 259 250 248 246 243 222 211 207 214 213 215 225
319 316 311 313 316 317 314 312 311 310 309 306 301 296 287 283 277 272 272 276 278 277 274 272 270 271 271 271 267 260 256 246 235 221 210 199 199 211 216 213 217 219 228
321 318 316 314 312 311 311 311 311 309 308 305 301 296 290 286 280 275 273 273 277 280 277 274 272 272 272 267 258 251 241 234 213 200 201 199 214 214 215 217 220 226 239
323 320 315 313 312 310 308 308 305 304 303 304 302 300 295 291 288 282 276 275 276 276 279 282 279 278 272 250 247 245 238 217 202 197 192 191 188 183 191 212 240 250 245
315 314 312 309 309 307 306 305 303 303 303 304 304 303 301 294 289 282 277 275 274 271 276 279 280 272 250 234 235 216 209 205 189 181 174 175 186 183 224 251 254 255 252
309 311 309 308 308 308 306 304 304 302 302 301 304 304 304 295 289 281 279 275 266 277 289 285 259 228 208 211 211 202 195 189 181 169 172 178 199 283 277 256 256 251 248
305 308 311 309 306 305 304 303 304 304 302 301 303 301 296 289 287 282 262 253 261 290 295 215 161 157 177 188 191 195 186 168 173 197 217 258 285 295 290 276 261 253 252
300 303 306 306 305 305 304 305 301 302 302 303 300 295 296 292 276 269 235 207 271 301 131 138 134 147 171 190 186 184 176 176 205 267 282 288 290 288 282 270 259 257 254
302 303 306 307 305 302 300 301 298 302 297 298 307 310 312 311 281 133 154 130 104 95 96 107 142 156 168 179 183 182 200 259 287 290 287 286 286 284 277 266 265 263 261
302 304 304 302 300 300 296 286 281 290 298 306 47 32 35 43 107 114 119 98 100 87 89 98 99 131 174 212 234 247 257 265 272 278 282 282 279 276 270 268 269 266 260
297 298 298 297 294 288 278 266 256 250 248 147 88 55 84 105 120 129 139 133 124 96 85 81 88 114 175 226 242 255 264 269 271 272 271 269 267 268 270 270 268 267 268
294 292 286 282 280 265 253 248 239 224 197 167 134 116 104 115 148 150 155 156 140 162 167 185 205 235 252 259 268 269 269 269 270 269 269 269 270 271 273 273 272 271 271
289 283 273 267 262 249 238 238 229 210 197 182 171 169 157 152 164 165 171 183 200 216 232 245 258 271 277 280 276 276 278 281 281 284 285 284 281 279 277 275 272 271 272
283 270 258 250 246 240 233 228 222 213 202 184 160 140 134 138 160 170 178 194 217 237 251 264 273 279 283 287 289 287 283 281 280 280 279 278 278 276 275 275 276 276 274
274 264 252 242 235 231 227 223 220 218 207 190 178 177 177 173 170 175 186 202 221 245 263 274 279 283 285 285 283 281 281 282 283 284 283 282 281 281 281 280 278 276 276
267 258 246 233 228 223 218 215 214 211 211 197 178 176 180 189 207 228 243 256 266 274 281 285 289 289 288 288 287 288 288 289 288 287 284 283 284 283 283 283 281 279 279
256 246 235 226 219 213 211 209 207 207 206 200 191 199 212 225 243 261 274 284 290 291 290 290 289 289 291 293 293 294 294 293 292 290 289 287 287 286 283 282 280 278 274
246 235 226 217 208 205 201 197 194 198 206 218 226 236 251 264 272 281 286 287 288 289 290 292 293 294 294 294 295 296 296 295 293 291 290 289 288 287 286 285 282 277 272
224 212 204 197 191 189 190 191 199 217 229 243 258 269 276 281 284 285 287 289 291 293 296 296 298 298 298 298 297 297 297 294 291 289 288 288 286 285 283 280 276 275 272